TIANMU-1 21

Last updated on Fri Sep 11 2026 00:02:39 GMT+0000 (Coordinated Universal Time)

1 58662U 23208C 26253.60107251 .00007453 00000+0 21163-3 0 9996 2 58662 97.4581 14.2350 0007136 22.3322 337.8232 15.36472822150676
UTC large
Height (km)
Speed (km/s)
/
Latitude / Longitude
Inclination (degrees)
Orbital Period (minutes)
Azimuth
Elevation
Range (km)
Doppler Factor

Next 0 passes for location: London (51.5072 / 0.1276)

No passes found over London.
TIANMU-1 21